Location: Boullarre
(49.1305°N, 3.0047°E)
Time: 23:24:37
(UTC+00:00)

Cosmos 1869 - Pass Details

Date: 03 February 2023
Orbit: 510 x 550 km, 82.5° (Epoch: 21 March)

Event Time Altitude Azimuth Distance (km) Brightness Sun altitude
Rises 19:01:22 0° 344° (NNW) 2,661 7.0 -22.0°
Reaches altitude 10° 19:03:34 10° 338° (NNW) 1,774 6.2 -22.4°
Maximum altitude 19:07:16 44° 266° (W) 743 4.4 -23.0°
Drops below altitude 10° 19:11:00 10° 194° (SSW) 1,784 6.0 -23.6°
Sets 19:13:13 0° 188° (S) 2,678 6.9 -24.0°
